SL-8 DEB, 21959

Orbit data source: Space-Track

SL-8 DEB, 21959 is space debris in LEO originally from a launch on Tue, 12 Feb 1991 UTC launched from the Plesetsk Missile And Space Complex (PKMTR). Debris objects in space refer to the collection of defunct objects orbiting the Earth. Examples of debris include non-operational satellites, rocket bodies, and fragments generated from explosions, collisions, or faulty payload assembly.

Loading next visibility...
Identifier
21959, 1991-009CH
Orbit
LEO
Country
Flag of CISCIS
Related business
Manufacturer
Unknown
Mission
Spacecraft
Bus & Motor
Unknown
Mass
Unknown
Launch date (UTC)
1991-02-12 (35 years ago)
Launch vehicle
Unknown
Launch site
Plesetsk Missile And Space Complex (PKMTR)
Object type
Payload
Rocket body
Debris
Shape & HBR
Unknown shape, 0.1 m
Radar Cross Section
Medium (>0.1 m² and <1 m²)

Expand to show TLE details & history
Last TLE update: 2 days ago

TLE from 2 days ago
0 SL-8 DEB
1 21959U 91009CH  26171.39111427  .00000059  00000-0  70175-3 0  9997
2 21959  73.9656 168.0121 0128677  87.7594  36.1437 12.18969457568807
Epoch: 2026-06-20T09:23Z
TLE epoch observation values (Epoch: 2026-06-20T09:23:12.272Z)
Latitude
52.2237°
Longitude
-83.0501°
Altitude
1,522.663 km
Speed
7.146 km/s
True Right ascension
21h 45m 25s
True Declination
52° 04' 24"
Sunlit
Object was in daylight at epoch
Visualization orbit readout
Latitude
Unknown
Longitude
Unknown
Altitude
Unknown
Speed
Unknown
Apparent Right ascension
Unknown
Apparent Declination
Unknown
Sunlit
N/A
Visualization observer readout
Local Sidereal Time
00:51:04
Azimuth
Unknown
Elevation
Unknown
Doppler factor
Unknown
Orbital elements
Apogee altitude
1,697.504 km
Perigee altitude
1,492.314 km
Semi-major axis
7,973.046 km
Eccentricity
0.01287
Inclination
73.9656°
RAAN
168.0121°
Arg. of periapsis
87.7594°
True anomaly
37.0248°
Mean anomaly
36.1437°
Eccentric anomaly
36.5831°
Mean motion
3.04864 °/min
Orbital period
118.09 mins
BSTAR
0.00070175
Loading maneuver chart data...
Computing Atmospheric mass density...
Loading historical data...
Loading historical data...
Loading historical data...
Loading historical data...
Loading historical data...
Loading historical data...
Loading historical data...

Documentation

Showing up to 5 results
|